Simultaneous Nadir Overpasses (SNOs) Predictions

Prediction of SNOs between AQUA and METOP-C Satellite Orbit:

Table of predicted SNOs for the next 14.0 days since TLE Epoch: 9/5/2025
Index Date (AQUA) Time (AQUA) Lat,Lon (AQUA) SZA (AQUA ) Date (METOP-C) Time (METOP-C) Lat,Lon (METOP-C) SZA (METOP-C ) Distance(km) Time Diff (sec)
1 09/06/2025 02:34:25 -76.94, -34.72 109.49 09/06/2025 02:34:17 -76.92, -34.73 109.50 1.17 8
2 09/06/2025 03:23:44 76.95, 132.89 70.55 09/06/2025 03:24:56 76.98, 132.81 70.58 3.32 72
3 09/08/2025 14:32:57 76.92, -34.23 71.44 09/08/2025 14:32:32 76.93, -34.28 71.45 1.55 25
4 09/08/2025 15:22:15 -76.97, 133.25 108.50 09/08/2025 15:23:12 -76.99, 133.31 108.47 2.41 57
5 09/11/2025 02:31:27 -76.95, -33.88 107.58 09/11/2025 02:30:48 -76.93, -33.81 107.60 2.24 39
6 09/11/2025 03:20:46 76.97, 133.69 72.46 09/11/2025 03:21:27 76.99, 133.73 72.48 1.68 41
7 09/13/2025 14:29:55 76.91, -33.32 73.35 09/13/2025 14:29:02 76.92, -33.42 73.35 2.85 53
8 09/13/2025 15:19:13 -76.96, 134.19 106.60 09/13/2025 15:19:42 -76.98, 134.16 106.57 2.62 29
9 09/16/2025 02:28:23 -76.96, -33.01 105.65 09/16/2025 02:27:17 -76.96, -32.85 105.65 4.19 66
10 09/16/2025 03:17:42 76.99, 134.52 74.40 09/16/2025 03:17:57 76.96, 134.51 74.38 3.23 15
11 09/18/2025 14:26:47 76.81, -32.03 75.20 09/18/2025 14:25:36 76.75, -33.22 75.10 31.32 71
12 09/18/2025 15:16:08 -76.99, 134.98 104.63 09/18/2025 15:16:12 -76.99, 135.06 104.63 2.12 4



Historial Predications of SNOs between AQUA and METOP-C
